Location: ??????
(41.3164°N, 22.6615°E)
Time: 17:51:29
(UTC+00:00)

COSMOS 2251 DEB - Visible Passes

Search period start: 11 August 2022 00:00
Search period end: 21 August 2022 00:00
Orbit: 589 x 613 km, 74.0° (Epoch: 06 May)

Date Brightness Start Highest point End Pass type
(mag) Time Alt. Az. Time Alt. Az. Time Alt. Az.
11 Aug ? 20:47:29 14° NE 20:47:29 14° NE 20:48:13 10° NE visible
11 Aug ? 22:23:35 17° NW 22:23:35 17° NW 22:25:21 10° NNW visible
12 Aug ? 20:49:01 18° NE 20:49:01 18° NE 20:50:13 10° NNE visible
12 Aug ? 22:25:07 14° NW 22:25:07 14° NW 22:26:37 10° NNW visible
13 Aug ? 20:50:25 23° NNE 20:50:25 23° NNE 20:52:02 10° NNE visible
13 Aug ? 22:26:30 11° NW 22:26:30 11° NW 22:27:10 10° NW visible
14 Aug ? 20:51:40 27° NNE 20:51:40 27° NNE 20:53:40 10° NNE visible
15 Aug ? 20:52:44 31° N 20:52:44 31° N 20:55:08 10° N visible
16 Aug ? 19:17:34 11° ENE 19:17:34 11° ENE 19:17:53 10° NE visible
16 Aug ? 20:53:37 31° NNW 20:53:37 31° NNW 20:56:26 10° N visible
17 Aug ? 19:18:17 17° ENE 19:18:17 17° ENE 19:19:41 10° NE visible
17 Aug ? 20:54:18 27° NW 20:54:18 27° NW 20:57:33 10° N visible
18 Aug ? 19:18:43 27° ENE 19:18:43 27° ENE 19:21:14 10° NE visible
18 Aug ? 20:54:45 20° WNW 20:55:16 21° WNW 20:58:27 10° N visible
19 Aug ? 19:18:51 46° E 19:18:51 46° E 19:22:33 10° NNE visible
19 Aug ? 20:54:51 13° W 20:56:33 16° WNW 20:59:06 10° NNW visible
20 Aug ? 19:18:32 49° S 19:19:31 68° ESE 19:23:42 10° NNE visible
20 Aug ? 20:56:13 10° WNW 20:57:45 12° NW 20:59:17 10° NW visible
